www.pogodaiklimat.ru

Погода и климат >> Архив погоды >> Россия >> Ленинградская область >> Белогорка


ПОГОДА в Белогорке

  • Прогноз погоды в Белогорке
  • Монитор погоды в Белогорке

АРХИВ ПОГОДЫ в Белогорке

Время (UTC), дата Ветер
(напр.,м/с)
 
Видим.   Явления Облачность Т
(С)
Тd
(С)
f
(%)
Тe
(С)
Тes
(С)
Комфортность P
(гПа)
Po
(гПа)
Тmin
(С)
Tmax
(С)
R
(мм)
R24
(мм)
S
(см)
06 17.02 З 5 10 км ясно -0.1 -5.6 66 -6 -6 1002.3 991.2 -0.8 34
09 17.02 СЗ 7-14
{14}
10 км 4/4 300 м
[Cb cap]
+1.9 -5.0 60 -4 -4 1004.2 993.2
12 17.02 СЗ 6-13
{13}
10 км 3/0
[Ci fib]
+3.2 -6.8 48 -2 -1 1006.8 995.8
15 17.02 СЗ 4
{14}
10 км 3/0
[Ci fib]
+1.1 -8.4 49 -3 -3 1010.6 999.5
18 17.02 СЗ 5
{11}
50 км ясно -1.1 -11.6 45 -7 -7 1014.6 1003.3 +3.2
21 17.02 С 5 50 км ясно -2.6 -12.1 48 -9 -9 1017.7 1006.3
00 18.02 СЗ 1 50 км ясно -6.1 -12.4 61 -8 -8 1020.2 1008.6
03 18.02 СЗ 2 50 км 4/0
[Ci fib]
-8.1 -12.7 69 -12 -12 1021.7 1010.0 -8.2
06 18.02 ЮЗ 1 10 км 3/0
[Ci fib]
-11.4 -14.0 81 -14 -13 1023.6 1011.8 -11.6 32
09 18.02 ЮЗ 1 10 км 8/0
[Ac trans]
-4.2 -11.2 58 -6 -5 1024.5 1013.0
12 18.02 Ю 3 10 км 9/0
[Ac trans]
-1.6 -11.4 47 -6 -5 1022.6 1011.1
15 18.02 Ю 2 10 км 9/0
[Ac trans]
-1.6 -10.5 51 -5 -5 1020.1 1008.7
18 18.02 Ю 4 50 км 9/0
[Ac trans]
-1.8 -11.3 48 -7 -7 1016.8 1005.5 +0.1
21 18.02 Ю 5 50 км 9/0
[Ac As]
-1.1 -9.9 51 -7 -7 1013.4 1002.1
00 19.02 ЮЗ 6
{10}
50 км 9/0
[Ac As]
-0.8 -6.5 65 -7 -7 1010.6 999.4
03 19.02 ЮЗ 7-10
{11}
50 км 10/10 360 м
[St]
+0.4 -1.5 87 -7 -7 1008.1 997.0 -1.8
06 19.02 ЮЗ 6
{11}
10 км 10/10 270 м
[St]
+1.1 +0.1 93 -5 -5 1006.6 995.5 -1.8 32
09 19.02 ЮЗ 6-10
{10}
4000 м дымка 10/10 270 м
[St]
+1.7 +1.1 96 -5 -5 1005.5 994.5
12 19.02 ЮЗ 6 4000 м дымка 10/10 270 м
[St]
+2.2 +1.3 94 -4 -4 1003.1 992.1
15 19.02 ЮЗ 6
{10}
10 км 10/10 330 м
[St]
+1.8 0.0 88 -4 -4 999.9 988.9
18 19.02 Ю 4
{10}
50 км 10/10 270 м
[St]
+2.1 +0.4 88 -3 -3 996.4 985.5 +2.4
21 19.02 ЮЗ 6
{10}
50 км 10/10 240 м
[St]
+2.0 +0.8 92 -4 -4 993.6 982.7
00 20.02 ЮЗ 5 50 км 10/10 270 м
[St]
+1.7 +0.8 94 -4 -4 993.0 982.1
03 20.02 ЮЗ 4 50 км 10/10 270 м
[St]
+1.7 +1.1 96 -4 -4 991.6 980.7 +1.6
06 20.02 ЮЗ 5 4000 м слаб. дождь 10/0 360 м
[As op]
+1.9 +1.2 95 -4 -4 990.9 980.0 +1.5 0.4 31
09 20.02 З 5 4000 м слаб. дождь 10/0 360 м
[As op]
+1.9 +0.9 93 -4 -4 990.8 979.9
12 20.02 ЮЗ 4 4000 м слаб. морось {дождь} 10/10 360 м
[St]
+1.9 +1.0 94 -3 -3 990.5 979.6
15 20.02 З 5 10 км {снег, морось} 10/10 360 м
[St]
+0.6 -0.5 92 -5 -5 991.5 980.6 2
18 20.02 СЗ 5-11
{12}
50 км {снег, морось} 10/10 270 м
[St]
-3.3 -6.8 77 -10 -10 996.0 984.7 +2.1 1
21 20.02 СЗ 4
{11}
10 км слаб. снег 10/0 270 м
[As op]
-4.9 -7.4 83 -11 -11 998.8 987.6
00 21.02 СЗ 6-11
{13}
4000 м слаб. снег 10/0 270 м
[As op]
-5.7 -10.3 70 -13 -13 1002.5 991.1
03 21.02 С 7-12
{13}
4000 м слаб. снег 10/0 360 м
[As op]
-6.5 -10.9 71 -15 -15 1006.7 995.3 -6.5 0.5
06 21.02 С 5-11
{14}
10 км {снег} 3/0
[Ac trans]
-8.0 -14.1 61 -15 -15 1010.8 999.3 -8.1 0.5 27
09 21.02 С 6-11
{14}
10 км 5/0
[Ac trans]
-6.8 -13.6 58 -15 -14 1014.5 1003.0
12 21.02 С 7-11
{14}
10 км 1/0
[Ac trans]
-5.3 -14.4 49 -13 -13 1017.2 1005.7
15 21.02 С 5
{12}
10 км 6/3 600 м
[Sc Ac trans Ci fib]
-6.2 -14.7 51 -13 -13 1020.4 1008.8 0.0
18 21.02 С 6-12
{12}
50 км 3/0
[Ci fib]
-7.7 -14.9 56 -16 -16 1023.1 1011.4 -5.0
21 21.02 С 5
{10}
50 км 3/0
[Ci fib]
-9.3 -14.6 65 -17 -17 1025.6 1013.9
00 22.02 С 5 50 км ясно -9.9 -13.7 74 -18 -18 1028.1 1016.3
03 22.02 С 5 50 км ясно -10.7 -13.9 77 -19 -19 1030.6 1018.7 -10.8
06 22.02 С 4 10 км 1/0
[Ac trans]
-10.3 -12.9 81 -17 -17 1033.1 1021.2 -11.1 27
09 22.02 С 4
{10}
10 км {снег} 8/0
[As trans]
-7.0 -11.1 73 -14 -13 1036.3 1024.5
12 22.02 С 4
{10}
10 км {снег} 1/0
[Ac trans]
-4.7 -10.8 62 -11 -9 1038.1 1026.4
15 22.02 СЗ 2 10 км 3/0
[Ci fib]
-6.4 -15.4 49 -10 -10 1038.8 1027.0 0.0
18 22.02 СЗ 2 50 км 3/0
[Ci fib]
-8.9 -15.5 59 -13 -13 1039.6 1027.7 -4.3 0.0
21 22.02 Ю 1 50 км 3/0
[Ci fib]
-11.0 -14.1 78 -13 -13 1038.7 1026.7
00 23.02 З 4 50 км 4/0
[Ci fib]
-9.0 -13.6 69 -16 -16 1036.6 1024.7
03 23.02 ЮЗ 6 50 км 9/0
[As trans]
-6.6 -13.6 57 -14 -14 1033.1 1021.4 -14.5
06 23.02 ЮЗ 8-12
{12}
4000 м слаб. снег 10/0 270 м
[As op]
-6.1 -8.2 85 -15 -15 1028.6 1017.0 -14.5 0.2 27
09 23.02 З 6
{13}
10 км {снег} 10/10 330 м
[St]
-2.9 -4.6 88 -10 -10 1026.0 1014.5
12 23.02 З 4
{11}
4000 м дымка {снег} 10/10 330 м
[St]
-0.5 -1.3 94 -6 -6 1023.9 1012.6
15 23.02 З 4
{11}
4000 м дымка 10/10 330 м
[St]
+0.2 -0.4 96 -5 -5 1023.8 1012.5 0.2
18 23.02 З 4 4000 м дымка 10/10 210 м
[St]
+0.4 +0.1 98 -5 -5 1024.4 1013.1 +0.4 0.0
21 23.02 З 3 4000 м дымка 10/10 210 м
[St]
+0.5 +0.4 99 -4 -4 1024.0 1012.7
00 24.02 З 4 4000 м дымка 10/10 210 м
[St]
+0.6 +0.5 99 -5 -5 1023.5 1012.2
03 24.02 З 4 4000 м дымка 10/10 210 м
[St]
+0.5 +0.4 99 -5 -5 1023.2 1011.9 +0.2

 

Местоположение метеостанции Белогорка (Ленинградская область, Россия): широта 59.35 долгота 30.13 высота над уровнем моря 89 м.

В архиве по умолчанию представлена погода в Белогорке за последнюю неделю. Архивные данные за месяц целиком и за предыдущие месяцы, начиная с января 2011 года, Вы можете получить, выбрав интересующий диапазон дат из раскрывающегося списка и нажав кнопку "Ввод!".


*Определитесь, кто Вы:
робот инопланетянин человек

Внимание! Время в таблицах - всемирное. Для получения местного времени необходимо прибавить поправку, которая равна 3 ч.

Смотрите также архив погоды в соседних городах и на ближайших метеорологических станциях:

Погода в Волосово (Ленинградская область, Россия) (37 км)
Погода в Любани (Ленинградская область, Россия) (62 км)
Погода в Ломоносове (город Санкт-Петербург, Россия) (66 км)
Погода в Санкт-Петербурге (город Санкт-Петербург, Россия) (70 км)
Погода в Кронштадте (город Санкт-Петербург, Россия) (73 км)
Погода в Шепелево (Ленинградская область, Россия) (73 км)
Погода в Воейково (город Санкт-Петербург, Россия) (74 км)
Погода в Лисьем Носу (город Санкт-Петербург, Россия) (75 км)
Погода в Сосновом Бору (Ленинградская область, Россия) (75 км)
Погода в Шлиссельбурге (Ленинградская область, Россия) (81 км)

Пояснения к столбцам:

Ветер - указаны скорость ветра в м/с - средняя за 10 мин, порывы в срок и между сроками (в фигурных скобках) и направление, откуда дует ветер: С - северный, СВ - северо-восточный, В - восточный, ЮВ - юго-восточный, Ю - южный, ЮЗ - юго-западный, З - западный, СЗ - северо-западный.
Видимость - горизонтальная дальность видимости в метрах или километрах. При видимости от 1 до 10 км при отсутствии осадков обычно наблюдается дымка, при ухудшении видимости до 1 км и менее - туман. В сухую погоду видимость может ухудшаться дымом, пылью или мглою.
Явления - указаны атмосферные явления, наблюдавшиеся в срок или в последний час перед сроком; фигурными скобками обозначены явления, наблюдавшиеся между сроками (за 1-3 часа до срока); квадратными скобками обозначены град или гололедные отложения с указанием их диаметра в мм.
Облачность - указаны через наклонную черту общая и нижняя облачность в баллах и высота нижней границы облаков в метрах; квадратными скобками обозначены формы облаков: Ci - перистые, Cs - перисто-слоистые, Cc - перисто-кучевые, Ac - высококучевые, As - высокослоистые, Sc - слоисто-кучевые, Ns - слоисто-дождевые, Cu - кучевые, Cb - кучево-дождевые. Подробнее классификацию облаков см. в Атласе облаков (PDF).
T - Температура воздуха - температура, измеренная на высоте 2 м над землей.
Td - Температура точки росы - температура, при понижении до которой содержащийся в воздухе водяной пар достигнет насыщения.
f - Относительная влажность воздуха - влажноcть воздуха, измеренная на высоте 2 м над землей.
Te - Эффективная температура - температура, которую ощущает одетый по сезону человек в тени. Характеристика душности погоды. При расчете учитывается влияние влажности воздуха и скорости ветра на теплоощущения человека.
Tes - Эффективная температура на солнце - температура, которую ощущает человек, с поправкой на солнечный нагрев. Характеристика знойности погоды. Зависит от высоты солнца над горизонтом, облачности и скорости ветра. Ночью, в пасмурную погоду, а также при ветре 12 м/с и более поправка равна нулю.
P - Атмосферное давление - приведенное к уровню моря атмосферное давление.
Po - Атмосферное давление - измеренное на уровне метеостанции атмосферное давление.
Tmin - Минимальная температура - минимум температуры воздуха на высоте 2 м над землей.
Tmax - Максимальная температура - максимум температуры воздуха на высоте 2 м над землей.
R - Количество осадков - Количество выпавших осадков за период времени, мм. При наведении курсора мыши на число - период времени, за который выпало указанное количество осадков.
R24 - Количество осадков - Количество выпавших осадков за 24 часа, мм.
S - Снежный покров - Высота снежного покрова, см. При наведении курсора мыши на число - состояние снежного покрова и степень покрытия местности в баллах.